GFSFLT1_700_avort_177.txt.gz
Vorticity
7 7 6 5 5 5 5 5 5 5 5 4 5 5 5 6 8 8 6 3 2 3 3 4 3 3 3 3 5 6 5 3 2
6 5 5 4 4 4 4 4 4 4 4 4 4 3 3 4 4 5 5 5 5 7 5 4 3 3 3 4 4 5 5 7 6
4 4 4 4 4 5 5 6 6 6 7 7 6 6 6 5 5 4 4 3 4 4 7 7 9 5 4 3 2 3 4 4 4
5 4 4 4 5 6 7 8 8 9 9 9 8 8 8 8 8 7 7 5 5 5 5 5 11 9 11 6 5 6 8 10 7
4 4 5 6 7 8 9 8 7 7 6 6 6 6 6 6 6 7 9 9 10 9 4 4 4 2 2 5 4 0 1 -1 -1
4 4 5 6 6 6 7 6 6 5 6 6 6 6 7 7 7 7 7 7 7 12 14 5 5 3 -1 2 1 7 3 4 4
4 5 6 7 8 7 6 5 6 7 8 9 10 10 10 9 8 8 7 8 8 7 8 12 10 5 5 -5 2 -6 6 5 6
5 5 7 9 7 5 5 6 7 8 8 8 8 9 9 10 11 12 12 10 9 9 11 12 10 10 9 10 12 11 9 8 7
5 7 8 7 5 5 5 7 7 8 8 9 9 8 8 9 9 9 10 12 12 12 12 11 12 12 12 12 11 12 13 13 11
7 7 7 5 4 6 7 8 8 8 9 9 10 14 15 15 15 14 12 12 11 12 13 12 14 14 13 13 12 12 12 12 12
7 6 5 5 6 8 9 9 9 9 10 12 13 11 10 11 11 12 15 13 13 14 13 11 11 13 13 12 11 11 11 9 9
7 5 4 5 7 9 8 10 8 10 11 10 9 11 14 15 14 13 14 13 13 14 12 13 11 10 10 10 9 9 9 9 10
5 5 6 8 9 9 9 8 11 11 10 7 9 12 14 12 10 11 12 11 12 13 12 12 10 10 9 9 9 8 9 9 8
6 6 7 6 6 8 12 11 11 12 10 5 6 10 16 12 11 11 11 10 9 10 9 9 8 7 7 8 9 9 7 7 7
7 6 6 8 10 10 11 12 11 11 11 7 2 4 10 11 15 14 14 14 10 9 11 12 10 9 9 9 8 7 7 9 8
6 6 8 9 8 9 10 12 11 12 11 9 8 2 7 6 6 7 7 12 13 12 11 10 10 10 8 8 10 10 9 8 8
6 8 7 7 9 11 11 11 11 11 11 10 9 8 6 5 6 8 8 9 11 10 12 13 13 12 10 10 9 10 9 9 8
8 6 5 5 4 10 11 11 10 10 11 11 10 7 5 6 5 6 6 5 9 9 10 11 12 12 11 9 11 10 10 9 9
6 4 5 5 5 8 11 10 10 10 9 9 11 11 7 5 6 6 6 5 5 7 8 9 11 13 11 9 9 9 9 9 8
4 4 5 6 5 6 8 6 7 7 7 9 8 9 10 10 9 7 7 7 6 5 5 7 7 9 10 8 8 9 9 8 7

GFSFLT1_700_avort_183.txt.gz
Vorticity
5 4 4 4 4 4 5 5 5 6 6 7 7 7 7 7 6 5 4 4 3 4 5 6 6 7 6 3 2 2 3 3 5
4 4 4 4 4 5 6 7 7 7 7 6 6 6 7 7 7 7 7 6 6 5 5 2 5 2 3 4 8 7 4 2 3
4 4 3 4 5 6 7 7 6 6 5 5 5 5 5 5 5 6 7 8 7 7 8 6 6 5 8 2 5 5 10 8 5
4 3 4 4 5 6 7 7 6 5 4 4 5 5 6 7 7 7 7 7 7 7 8 8 7 8 3 5 2 5 5 7 8
4 4 4 5 6 6 6 5 4 4 5 5 6 7 8 7 8 8 9 9 9 7 10 7 9 8 6 7 2 2 4 7 4
4 4 5 6 7 7 5 4 4 6 6 7 8 8 9 10 9 9 9 9 8 10 10 9 9 9 9 5 12 -2 3 3 0
4 4 6 7 6 4 4 4 5 6 7 8 9 10 10 10 11 11 11 10 9 9 10 12 12 8 10 11 -1 6 2 3 3
4 6 7 5 5 4 4 5 7 9 9 10 10 11 12 12 11 11 10 10 13 15 13 11 12 13 11 3 8 9 3 -2 1
5 6 5 5 4 4 5 7 8 8 8 9 10 11 11 11 11 11 11 12 12 12 13 15 14 12 13 14 15 13 14 13 12
6 5 5 5 5 6 6 6 7 10 10 10 10 11 10 10 11 13 13 13 12 13 14 12 13 15 17 15 17 19 18 17 17
5 5 5 5 6 6 8 8 11 12 12 11 10 11 9 8 11 13 12 11 10 10 10 11 12 14 13 13 13 14 15 14 15
5 6 6 6 6 9 9 10 11 9 9 9 10 11 9 6 8 12 14 12 10 9 10 11 9 10 12 13 13 13 13 13 12
6 5 6 6 8 10 7 7 9 9 8 9 10 11 10 4 6 6 8 12 13 14 12 9 8 9 9 9 9 9 9 9 9
5 7 6 7 9 7 5 5 6 9 10 8 10 12 10 9 6 4 8 8 9 9 10 10 11 11 12 12 11 10 10 10 9
7 6 7 7 9 6 5 5 5 7 9 9 10 12 9 8 10 5 6 7 10 11 9 9 11 10 10 10 10 10 10 9 9
7 6 7 9 7 6 6 6 6 4 8 8 12 11 11 8 6 8 6 5 7 7 10 10 9 9 10 11 11 9 10 10 11
7 7 8 5 4 4 5 7 6 6 5 6 7 9 11 10 10 9 7 5 6 4 5 8 9 8 10 10 12 10 9 11 10
7 7 3 3 5 6 8 8 9 7 8 8 6 8 7 7 8 9 9 10 8 6 5 5 6 7 8 10 11 10 9 9 9
7 3 4 5 8 9 11 10 10 10 10 10 8 7 7 6 4 10 7 8 9 9 9 7 6 6 7 8 9 9 9 8 8
3 4 7 7 10 11 11 10 11 9 10 11 8 7 6 6 6 5 5 8 8 7 8 8 8 8 6 6 8 9 10 9 7

GFSFLT1_700_avort_186.txt.gz
Vorticity
4 4 4 4 4 5 6 6 7 7 6 6 5 5 5 6 5 6 6 6 7 7 5 5 6 5 5 7 8 8 5 3 3
4 4 4 4 5 5 5 6 6 6 5 5 5 5 5 5 5 5 6 6 6 6 7 7 5 4 6 2 2 2 9 8 3
4 4 4 4 4 5 6 6 5 5 4 4 4 5 5 6 6 7 7 8 8 7 6 7 8 7 6 6 5 4 5 4 10
4 4 4 4 5 6 6 5 4 4 4 5 5 6 7 7 8 8 8 8 9 8 8 9 8 8 8 8 3 3 2 8 5
4 4 4 4 6 6 5 4 4 5 5 6 7 8 8 8 9 10 10 10 9 9 10 12 9 9 8 7 9 5 9 -1 3
5 4 4 6 7 6 4 4 4 5 7 8 8 9 10 11 11 11 13 12 11 10 9 10 11 12 11 10 12 -1 -0 0 -1
4 4 6 6 6 4 4 5 7 8 8 9 10 11 11 11 11 12 11 11 10 11 12 13 14 12 13 15 11 10 4 5 3
5 5 6 5 5 4 5 6 7 9 7 9 11 11 10 11 10 10 10 11 13 14 14 15 14 15 14 13 14 15 8 8 11
4 6 5 5 4 5 6 7 8 7 11 13 11 10 10 10 9 10 12 13 12 12 12 11 13 13 14 14 15 14 16 18 17
5 5 5 5 6 6 7 9 8 10 13 10 9 9 10 10 8 8 10 12 11 10 10 10 11 11 12 12 12 13 15 16 18
6 5 5 6 6 6 8 9 8 8 9 9 9 10 9 11 8 7 7 9 11 12 12 9 10 11 11 11 11 14 15 15 14
6 5 5 6 5 7 11 8 6 5 6 8 9 10 7 10 11 7 6 7 7 8 9 12 11 9 9 9 9 10 11 11 10
6 6 6 5 6 8 11 8 5 5 4 8 8 9 8 8 9 9 6 5 7 10 9 9 9 10 12 12 10 10 8 7 8
6 6 6 5 7 10 8 6 6 6 6 4 8 8 9 8 9 10 9 5 4 5 8 11 9 10 12 11 10 12 10 10 9
7 6 5 7 9 6 5 4 6 8 7 7 5 7 7 8 7 9 10 9 6 3 4 6 9 9 10 12 11 11 10 10 9
6 5 6 9 5 4 5 5 7 8 9 8 8 8 6 7 8 6 8 11 10 8 5 4 5 7 8 11 12 11 10 10 9
6 6 8 5 3 5 7 8 10 11 11 11 9 7 7 7 7 8 7 7 9 10 11 7 6 5 5 7 11 11 10 10 11
6 8 5 4 4 7 7 8 10 10 12 11 9 11 8 7 7 6 6 6 6 7 9 10 8 8 6 6 6 9 10 9 9
6 3 3 3 6 7 7 8 9 10 10 9 8 9 9 9 8 8 6 6 5 5 7 8 8 7 9 8 6 6 7 9 9
4 4 5 6 9 8 8 9 10 10 7 6 5 6 6 6 5 8 8 5 5 5 5 4 6 8 7 8 9 8 6 6 8

GFSFLT1_700_avort_192.txt.gz
Vorticity
4 4 4 4 4 5 6 5 4 4 4 4 5 5 6 6 6 7 7 7 7 7 8 8 9 9 8 6 -1 5 5 4 6
4 4 4 4 5 5 5 4 4 4 4 5 6 7 8 8 8 9 10 10 11 10 9 9 8 8 9 8 7 3 5 4 3
4 5 4 4 5 4 4 4 4 5 6 8 9 8 7 9 10 10 10 10 10 10 11 11 10 10 11 11 10 9 0 2 8
5 5 4 4 5 4 4 4 5 5 8 9 8 9 11 12 13 12 12 12 11 11 10 10 11 11 12 11 12 10 10 1 -1
5 4 4 5 4 4 4 5 5 7 9 9 9 11 11 10 9 9 10 10 10 11 12 13 13 13 13 14 14 12 13 10 5
5 4 5 5 4 4 5 5 6 8 8 8 10 10 9 9 8 9 9 8 9 11 12 12 11 12 13 13 15 15 14 14 12
4 5 5 4 4 5 5 5 6 8 7 7 9 12 9 8 8 7 7 7 7 9 11 10 9 8 9 11 12 14 14 15 14
5 5 5 4 4 5 5 6 8 9 7 6 7 11 9 8 8 7 6 5 6 6 7 9 11 10 9 9 10 13 16 15 16
5 5 5 5 5 5 5 6 8 9 8 6 5 6 8 8 8 8 7 5 5 6 6 6 7 8 8 9 9 9 11 13 14
5 5 5 5 5 4 6 6 7 7 8 7 6 5 6 7 8 8 7 7 6 6 6 8 8 7 7 7 10 10 10 9 10
6 5 6 5 5 5 6 6 5 7 7 6 6 7 6 6 7 8 7 7 6 6 5 5 6 9 9 9 9 9 10 9 8
6 6 5 5 5 5 6 4 6 7 8 7 8 9 9 5 5 7 7 7 6 6 7 6 4 4 6 8 9 11 9 10 9
6 6 6 5 5 5 5 5 6 7 9 8 9 10 11 10 6 6 7 7 6 7 6 7 8 4 4 5 7 10 12 11 9
7 7 6 5 5 5 4 5 5 8 9 8 8 9 11 10 7 6 6 7 7 7 6 6 7 7 5 4 5 6 10 13 12
7 6 6 5 5 5 3 6 5 9 7 7 7 8 9 9 9 8 6 8 6 7 7 6 5 7 8 6 5 5 6 9 13
7 6 5 5 5 4 4 5 7 9 7 6 8 9 9 9 10 10 9 7 7 7 7 6 6 6 6 7 7 7 6 5 8
7 6 5 5 5 4 5 6 8 5 5 6 8 7 9 6 7 7 7 9 8 7 6 6 6 6 6 7 7 6 7 7 6
6 5 5 5 4 5 5 6 5 6 9 9 8 12 7 6 6 9 7 8 7 6 8 8 7 6 6 5 5 6 7 7 7
6 6 5 4 4 4 5 5 7 10 9 11 9 8 7 8 10 5 5 8 8 8 8 7 6 9 8 7 7 4 5 5 6
6 5 4 4 4 4 4 7 10 9 8 8 7 7 6 6 8 10 6 5 8 9 8 8 8 6 7 7 9 8 7 5 5